Home   Weather   Kaufbeuren   Past weeks

Flag for Germany Past Weather in Kaufbeuren, Bavaria, Germany — Yesterday and Last 2 Weeks

Now
16 °F

Ice fog.


Feels Like: 6 °F
Forecast: 6 / 23 °F
Wind: 7 mph from Southeast

Location: Altenstadt Airport

Current Time: Jan 19, 2017 at 11:58:46 am

Latest Report: Jan 19, 2017 at 11:20 am


Visibility: 3 mi

Pressure: 30.39 "Hg (27.78 "Hg at 693m altitude)

Humidity: 93%

Dew Point: 14 °F

Location of KaufbeurenLocation

Past Weather in Kaufbeuren — Graph

°F

Kaufbeuren Temperature Yesterday

Maximum temperature yesterday: 21 °F (at 2:20 pm)
Minimum temperature yesterday: 18 °F (at 12:20 am)
Average temperature yesterday: 19 °F

High & Low Weather Summary for the Past Weeks

 TemperatureHumidityPressure
High37 °F (Jan 12, 10:20 am)100% (Jan 8, 9:20 pm)30.57 "Hg (Jan 8, 9:20 pm)
Low-6 °F (Jan 7, 1:20 am)59% (Jan 13, 1:20 pm)29.39 "Hg (Jan 13, 1:20 am)
Average24 °F86%30.09 "Hg
* Reported Jan 4 10:20 am — Jan 19 10:20 am, Kaufbeuren, Weather by CustomWeather, © 2017

Note: Actual official high and low records may vary slightly from our data, if they occured in-between our weather recording intervals... More about our weather records

Advertising

Kaufbeuren Weather History for the Previous 24 Hours

Scroll right to see more
 ConditionsComfort  
Time TempWeatherWind HumidityBarometerVisibility
10:20 am
Thu, Jan 19
16 °FIce fog.8 mph93%30.39 "Hg3 mi
9:20 am16 °FIce fog.8 mph93%30.39 "Hg3 mi
9:16 am16 °FIce fog.8 mph93%30.39 "Hg3 mi
8:20 am16 °FPartly sunny.9 mph93%30.39 "Hg4 mi
7:20 am16 °FIce fog.10 mph93%30.36 "Hg3 mi
6:20 am18 °FPassing clouds.12 mph86%30.36 "Hg5 mi
5:56 am18 °FPassing clouds.14 mph86%30.36 "Hg5 mi
5:20 am18 °FPassing clouds.13 mph86%30.36 "Hg5 mi
4:20 am18 °FCold.12 mph93%30.36 "HgN/A
3:20 am18 °FCold.14 mph93%30.39 "HgN/A
2:20 am18 °FCold.15 mph93%30.39 "HgN/A
1:20 am19 °FCold.13 mph86%30.36 "HgN/A
12:20 am19 °FCold.15 mph79%30.39 "HgN/A
11:20 pm
Wed, Jan 18
19 °FCold.16 mph86%30.39 "HgN/A
10:20 pm19 °FCold.14 mph86%30.39 "HgN/A
9:20 pm19 °FCold.16 mph86%30.39 "HgN/A
8:20 pm19 °FLight snow. Partly cloudy.14 mph86%30.39 "Hg4 mi
7:20 pm19 °FLight snow. Partly cloudy.20 mph86%30.39 "Hg6 mi
6:20 pm19 °FLight snow. Partly cloudy.14 mph86%30.39 "HgN/A
5:20 pm21 °FLight snow. Passing clouds.18 mph80%30.39 "HgN/A
4:20 pm21 °FPartly sunny.17 mph80%30.39 "HgN/A
3:20 pm21 °FLight snow. Partly sunny.20 mph80%30.39 "HgN/A
2:20 pm21 °FPartly sunny.24 mph80%30.39 "HgN/A
1:20 pm19 °FLight snow. Partly sunny.26 mph79%30.39 "HgN/A
12:44 pm19 °FLight snow. Partly sunny.26 mph79%30.39 "HgN/A
12:20 pm19 °FLight snow. Partly sunny.21 mph79%30.39 "HgN/A
11:20 am19 °FLight snow. Partly sunny.20 mph79%30.39 "HgN/A
Weather by CustomWeather, © 2017

See weather overviewHow to use our weather pages